Weather History for KUES - January, 2014

Change the Weather History Date:

Wednesday, January 29, 2014

  Actual Average Record
Temperature  
Mean Temperature 24 °F -  
Max Temperature 51 °F 26 °F 57 °F (2013)
Min Temperature -4 °F 10 °F -22 °F (1966)
Degree Days  
Heating Degree Days 42    
Moisture  
Dew Point -3 °F    
Average Humidity 61    
Maximum Humidity 78    
Minimum Humidity 14    
Precipitation  
Precipitation 0.00 in - - ()
Sea Level Pressure  
Sea Level Pressure 30.02 in    
Wind  
Wind Speed 12 mph (SW)    
Max Wind Speed 21 mph    
Max Gust Speed 24 mph    
Visibility 10 miles    
Events      
Averages and records for this station are not official NWS values.
T = Trace of Precipitation, MM = Missing Value Source: NWS Daily Summary

Daily Weather History Graph

Daily Weather History Graph

Search for Another Location

Airport or City:

Trip Planner

Search our weather history database for the weather conditions in past years. The results will help you decide how hot, cold, wet, or windy it might be!

Date:

Astronomy

Jan. 29, 2014 Rise Set
Actual Time 7:11 AM CST 5:01 PM CST
Civil Twilight 6:40 AM CST 5:32 PM CST
Nautical Twilight 6:06 AM CST 6:06 PM CST
Astronomical Twilight 5:33 AM CST 6:39 PM CST
Moon 5:47 AM CST (1/29) 4:01 PM CST (1/29)
Length of Visible Light 10h 51m
Length of Day
9h 50m
Waning Crescent, 2% of the Moon is Illuminated
Jan 29
Waning Crescent
Jan 30
New
Feb 6
First Quarter
Feb 14
Full
Feb 22
Last Quarter

Hourly Weather History & Observations

Time (CST) Temp. Windchill Dew Point Humidity Pressure Visibility Wind Dir Wind Speed Gust Speed Precip Events Conditions
12:15 AM -4.0 °F -21.2 °F -11.2 °F 71% 30.12 in 10.0 mi WSW 10.4 mph 17.3 mph N/A   Clear
12:35 AM -4.0 °F -23.0 °F -11.2 °F 71% 30.12 in 10.0 mi WSW 12.7 mph 19.6 mph N/A   Clear
12:55 AM -2.2 °F -21.5 °F -11.2 °F 66% 30.11 in 10.0 mi WSW 13.8 mph - N/A   Clear
1:15 AM -4.0 °F -22.1 °F -11.2 °F 71% 30.11 in 10.0 mi WSW 11.5 mph - N/A   Clear
1:35 AM -4.0 °F -22.1 °F -11.2 °F 71% 30.11 in 10.0 mi WSW 11.5 mph 17.3 mph N/A   Clear
1:55 AM -4.0 °F -23.7 °F -9.4 °F 78% 30.10 in 10.0 mi WSW 13.8 mph - N/A   Clear
2:15 AM -4.0 °F -23.7 °F -9.4 °F 78% 30.10 in 10.0 mi WSW 13.8 mph - N/A   Clear
2:35 AM -4.0 °F -23.0 °F -9.4 °F 78% 30.10 in 10.0 mi WSW 12.7 mph 19.6 mph N/A   Clear
2:55 AM -4.0 °F -22.1 °F -9.4 °F 78% 30.09 in 10.0 mi WSW 11.5 mph 18.4 mph N/A   Clear
3:15 AM -4.0 °F -21.2 °F -9.4 °F 78% 30.09 in 10.0 mi WSW 10.4 mph - N/A   Clear
3:35 AM -4.0 °F -23.0 °F -9.4 °F 78% 30.08 in 10.0 mi WSW 12.7 mph 18.4 mph N/A   Clear
3:55 AM -4.0 °F -22.1 °F -9.4 °F 78% 30.08 in 10.0 mi WSW 11.5 mph - N/A   Clear
4:15 AM -4.0 °F -21.2 °F -9.4 °F 78% 30.08 in 10.0 mi WSW 10.4 mph - N/A   Clear
4:35 AM -4.0 °F -21.2 °F -9.4 °F 78% 30.08 in 10.0 mi WSW 10.4 mph - N/A   Clear
5:45 AM -4.0 °F -22.1 °F -11.2 °F 71% 30.09 in 10.0 mi WSW 11.5 mph - N/A   Clear
6:45 AM -2.2 °F -19.9 °F -9.4 °F 71% 30.08 in 10.0 mi WSW 11.5 mph - N/A   Clear
7:45 AM -0.4 °F -17.6 °F -9.4 °F 66% 30.08 in 10.0 mi WSW 11.5 mph - N/A   Clear
8:45 AM 1.4 °F -15.3 °F -7.6 °F 66% 30.09 in 10.0 mi WSW 11.5 mph - N/A   Clear
9:45 AM 6.8 °F -8.6 °F -5.8 °F 56% 30.09 in 10.0 mi WSW 11.5 mph - N/A   Clear
10:45 AM 10.4 °F -1.5 °F -5.8 °F 48% 30.11 in 10.0 mi WSW 8.1 mph - N/A   Clear
11:45 AM 12.2 °F -3.7 °F -2.2 °F 53% 30.08 in 10.0 mi SW 15.0 mph - N/A   Clear
12:45 PM 14.0 °F -3.9 °F -2.2 °F 49% 30.06 in 10.0 mi WSW 20.7 mph - N/A   Clear
1:45 PM 15.8 °F 0.3 °F -2.2 °F 45% 30.04 in 10.0 mi SW 16.1 mph - N/A   Clear
2:45 PM 17.6 °F 4.3 °F -0.4 °F 45% 30.04 in 10.0 mi WSW 12.7 mph 24.2 mph N/A   Clear
3:45 PM 17.6 °F 5.0 °F -0.4 °F 45% 30.02 in 10.0 mi SW 11.5 mph - N/A   Clear
4:45 PM 15.8 °F 4.2 °F -0.4 °F 49% 30.01 in 10.0 mi SSW 9.2 mph - N/A   Clear
5:45 PM 14.0 °F 3.9 °F 1.4 °F 57% 30.00 in 10.0 mi South 6.9 mph - N/A   Clear
6:45 PM 51.8 °F - 3.2 °F 14% 29.98 in 10.0 mi South 9.2 mph - N/A   Clear
7:45 PM 14.0 °F 2.0 °F 5.0 °F 67% 29.95 in 10.0 mi South 9.2 mph - N/A   Clear
8:15 PM 14.0 °F 2.0 °F 5.0 °F 67% 29.94 in 10.0 mi South 9.2 mph - N/A   Clear
8:35 PM 17.6 °F 5.0 °F 5.0 °F 58% 29.93 in 10.0 mi South 11.5 mph 18.4 mph N/A   Clear
8:45 PM 15.8 °F 2.7 °F 5.0 °F 62% 29.93 in 10.0 mi South 11.5 mph 18.4 mph N/A   Clear
8:55 PM 17.6 °F 5.0 °F 5.0 °F 58% 29.93 in 10.0 mi South 11.5 mph 17.3 mph N/A   Clear
9:15 PM 17.6 °F 5.0 °F 5.0 °F 58% 29.92 in 10.0 mi South 11.5 mph 18.4 mph N/A   Clear
9:35 PM 17.6 °F 3.7 °F 5.0 °F 58% 29.91 in 10.0 mi South 13.8 mph 18.4 mph N/A   Clear
9:55 PM 19.4 °F 9.5 °F 5.0 °F 54% 29.90 in 10.0 mi South 8.1 mph 18.4 mph N/A   Clear
10:15 PM 19.4 °F 7.2 °F 5.0 °F 54% 29.90 in 10.0 mi South 11.5 mph 16.1 mph N/A   Clear
10:35 PM 21.2 °F 10.9 °F 5.0 °F 50% 29.89 in 10.0 mi South 9.2 mph 17.3 mph N/A   Clear
10:55 PM 21.2 °F 8.3 °F 5.0 °F 50% 29.89 in 10.0 mi South 13.8 mph 19.6 mph N/A   Clear
11:15 PM 21.2 °F 8.9 °F 5.0 °F 50% 29.88 in 10.0 mi South 12.7 mph 20.7 mph N/A   Clear
11:35 PM 21.2 °F 10.1 °F 5.0 °F 50% 29.88 in 10.0 mi South 10.4 mph 17.3 mph N/A   Clear
11:55 PM 21.2 °F 8.9 °F 6.8 °F 54% 29.88 in 10.0 mi South 12.7 mph 19.6 mph N/A   Scattered Clouds